Regional Weather Roundup
Issued by NWS

Home | Current Version | Previous Version | Graphics & Text | Print | Product List | Glossary On
Versions: 1 2 3 4 5 6 7 8 9 10 11 12 13 14 15 16 17 18 19 20 21 22 23 24 25 26 27 28 29 30 31 32 33 34 35 36 37 38 39 40 41 42 43 44 45 46 47 48 49 50
000
ASUS43 KOAX 110710
RWRNE

WEATHER ROUNDUP FOR NEBRASKA
NATIONAL WEATHER SERVICE OMAHA NE
200 AM CDT FRI JUL 11 2014

NOTES: SATELLITE DATA IS BEING USED TO AUGMENT CLOUD COVER ABOVE
       12000 FEET.
       "FAIR" INDICATES FEW OR NO CLOUDS BELOW 12,000 FEET WITH NO
       SIGNIFICANT WEATHER AND/OR OBSTRUCTIONS TO VISIBILITY.

  * THESE STATIONS DO NOT REPORT WEATHER SUCH AS RAIN...SNOW OR FOG.

NEZ001>004-019>022-054>056-110800-
NEBRASKA PANHANDLE

CITY           SKY/WX    TMP DP  RH WIND       PRES   REMARKS
SCOTTSBLUFF    CLOUDY    68  62  81 N5        30.02R
ALLIANCE       LGT RAIN  65  61  87 SE14G25   29.97F
CHADRON        PTCLDY    69  63  81 SW5       29.97R
KIMBALL        LGT RAIN  64  60  89 E5        30.07R
SIDNEY         CLOUDY    65  58  78 E8        30.04S
$$

NEZ057>060-069>072-079>082-110800-
SOUTHWEST NEBRASKA

CITY           SKY/WX    TMP DP  RH WIND       PRES   REMARKS
NORTH PLATTE   CLOUDY    74  67  78 CALM      29.98R
IMPERIAL       PTCLDY    73  68  84 N23G29    29.98R
LEXINGTON      MOCLDY    73  69  88 SE10      29.94F
MCCOOK         CLOUDY    72  68  87 SE9       29.93R
OGALLALA       CLOUDY    66  63  88 N16G24    30.00F
$$

NEZ005>010-023>029-035>040-094-110800-
NORTH CENTRAL NEBRASKA

CITY           SKY/WX    TMP DP  RH WIND       PRES   REMARKS
VALENTINE      CLOUDY    67  64  90 SW8       29.89F
AINSWORTH      CLOUDY    72  69  91 S12       29.91F
BROKEN BOW     CLOUDY    73  68  84 SE9       29.94F
O`NEILL        CLOUDY    73  64  74 S9        29.94R
ORD            CLOUDY    71  65  81 SE7       29.94F
THEDFORD       CLOUDY    75  69  82 S12       29.97F
$$

NEZ041-046>049-061>064-073>077-083>087-110800-
SOUTH CENTRAL NEBRASKA

CITY           SKY/WX    TMP DP  RH WIND       PRES   REMARKS
GRAND ISLAND   PTCLDY    71  64  78 S14       29.96F
AURORA         PTCLDY    71  65  82 S12       29.96F
HASTINGS       CLEAR     71  63  75 S14       29.96F
HEBRON         CLEAR     73  64  73 S10       29.97F
HOLDREGE       MOCLDY    72  67  85 SE13G18   29.95S
KEARNEY *      PTCLDY    70  64  83 S12       29.95F
YORK           PTCLDY    70  64  83 S13       29.97F
$$

NEZ011>018-030>034-042>045-110800-
NORTHEAST NEBRASKA

CITY           SKY/WX    TMP DP  RH WIND       PRES   REMARKS
NORFOLK        PTCLDY    72  63  73 S12       29.97R
ALBION         MOCLDY    71  63  74 S10       29.96F
BLAIR          CLEAR     72  64  77 S15G22    29.98F
TEKAMAH        PTCLDY    72  65  78 S9        29.98F
WAYNE          PTCLDY    73  66  79 S12       29.99R
$$

NEZ050>053-065>068-078-088>093-110800-
SOUTHEAST NEBRASKA

CITY           SKY/WX    TMP DP  RH WIND       PRES   REMARKS
LINCOLN        CLEAR     72  65  78 S12       29.99F
OMAHA EPPLEY   CLEAR     72  64  76 SE15      29.99F
BEATRICE       CLEAR     69  65  86 S10       29.99F
FALLS CITY     CLEAR     67  65  93 SE6       30.02F
NEBRASKA CITY  CLEAR     68  65  90 S9        30.01F
PLATTSMOUTH    CLEAR     70  65  83 SE13      30.00F
$$

NEZ044-045-051>053-067-110800-
OMAHA AREA

CITY           SKY/WX    TMP DP  RH WIND       PRES   REMARKS
OMAHA EPPLEY   CLEAR     72  64  76 SE15      29.99F
BLAIR          CLEAR     72  64  77 S15G22    29.98F
MILLARD        CLEAR     71  66  84 SE9       29.99F
OFFUTT AFB     CLEAR     69  69  99 SE10      30.00F
PLATTSMOUTH    CLEAR     70  65  83 SE13      30.00F
WAHOO          FAIR      71  65  83 S12       29.97F
$$



USA.gov is the U.S. government's official web portal to all federal, state and local government web resources and services.